AC2EV Weather Reports


Display with metric or nautical units.
time (UTC)temp
F
wind
direction
speed
MPH
gust
MPH
rain 1hr
in
rain 24hr
in
rain mn
in
humidity
%
barometer
mb
20260507075102 38 109 0.0 0.0 0.00 0.29 0.00 91 1011.6
20260507074602 38 109 0.0 0.0 0.00 0.30 0.00 90 1011.6
20260507074102 38 109 0.0 0.0 0.00 0.30 0.00 90 1011.5
20260507073603 38 109 0.0 0.0 0.00 0.30 0.00 90 1011.6
20260507073103 39 109 0.0 0.0 0.00 0.31 0.00 90 1011.7
20260507072602 39 109 0.0 0.0 0.00 0.32 0.00 90 1011.7
20260507072103 39 109 0.0 0.0 0.00 0.32 0.00 90 1011.8
20260507071641 39 109 0.0 0.0 0.00 0.33 0.00 90 1011.8
20260507071156 40 109 0.0 0.0 0.00 0.33 0.00 90 1011.9
20260507070718 40 109 0.0 0.0 0.00 0.34 0.00 90 1012.0
20260507065603 40 109 0.0 0.0 0.00 0.35 0.00 89 1012.1
20260507065102 40 109 0.0 0.0 0.00 0.36 0.00 89 1012.0
20260507064603 40 109 0.0 0.0 0.00 0.36 0.00 89 1011.9
20260507064102 41 109 0.0 0.0 0.00 0.37 0.00 89 1011.9
20260507063603 41 109 0.0 0.0 0.00 0.38 0.00 89 1011.9
20260507063102 41 109 0.0 0.0 0.00 0.38 0.00 88 1011.8
20260507062603 41 109 0.0 0.0 0.00 0.39 0.00 88 1011.8
20260507062102 41 109 0.0 0.0 0.00 0.40 0.00 88 1011.8
20260507061602 41 109 0.0 0.0 0.00 0.40 0.00 88 1011.8
20260507061101 41 109 0.0 0.0 0.00 0.42 0.00 88 1011.8
20260507060602 42 109 0.0 0.0 0.00 0.42 0.00 88 1011.9
20260507060101 42 109 0.0 0.0 0.00 0.44 0.00 89 1011.8
20260507055601 42 109 0.0 0.0 0.00 0.45 0.00 89 1011.9
20260507055101 42 109 0.0 0.0 0.00 0.46 0.00 89 1012.1
20260507054601 42 109 0.0 0.0 0.00 0.47 0.00 89 1012.0
20260507054101 42 109 0.0 0.0 0.00 0.48 0.00 89 1012.1
20260507053602 42 109 0.0 0.0 0.00 0.49 0.00 89 1012.1
20260507053101 42 109 0.0 0.0 0.00 0.50 0.00 90 1012.1
20260507052714 42 109 0.0 0.0 0.00 0.51 0.00 90 1012.1
20260507052101 42 109 0.0 0.0 0.00 0.52 0.00 90 1012.3
20260507051603 42 109 0.0 0.0 0.00 0.53 0.00 90 1012.3
20260507051101 42 109 0.0 0.0 0.00 0.54 0.00 90 1012.3
20260507050603 42 109 0.0 0.0 0.00 0.54 0.00 90 1012.3
20260507045601 42 109 0.0 0.0 0.00 0.56 0.00 90 1012.5
20260507045100 42 109 0.0 0.0 0.00 0.57 0.00 90 1012.4
20260507044558 42 109 0.0 0.0 0.00 0.58 0.00 90 1012.5
20260507044052 42 109 0.0 0.0 0.00 0.59 0.00 90 1012.4
20260507043718 42 109 0.0 0.0 0.00 0.60 0.00 91 1012.4
20260507043050 42 109 0.0 0.0 0.00 0.60 0.00 91 1012.4
20260507042548 42 109 0.0 0.0 0.00 0.60 0.00 91 1012.4
20260507042046 42 109 0.0 0.0 0.00 0.61 0.00 91 1012.3
20260507041544 42 109 0.0 0.0 0.00 0.62 0.00 91 1012.3
20260507041042 42 109 0.0 0.0 0.00 0.62 0.00 91 1012.3
20260507040541 42 109 0.0 0.0 0.00 0.62 0.00 91 1012.3
20260507040038 42 109 0.0 0.0 0.00 0.63 0.00 92 1012.1
20260507035537 42 109 0.0 0.0 0.00 0.63 0.63 92 1012.1
20260507035036 42 109 0.0 0.0 0.00 0.64 0.63 92 1012.1
20260507034537 42 109 0.0 0.0 0.00 0.64 0.63 92 1012.1
20260507034037 42 109 0.0 0.0 0.00 0.64 0.63 92 1012.0
20260507033714 42 109 0.0 0.0 0.00 0.65 0.63 92 1012.0
20260507033037 42 109 0.0 0.0 0.00 0.65 0.63 92 1012.0
20260507032715 42 109 0.0 0.0 0.00 0.66 0.63 92 1012.0
20260507032032 43 109 0.0 0.0 0.00 0.66 0.63 92 1012.1
20260507031533 43 109 0.0 0.0 0.00 0.66 0.63 92 1011.9
20260507031033 43 109 0.0 0.0 0.00 0.66 0.63 92 1012.0
20260507030532 43 109 0.0 0.0 0.00 0.66 0.63 92 1012.0
20260507030033 43 109 0.0 0.0 0.00 0.66 0.63 92 1011.9
20260507025532 43 109 0.0 0.0 0.00 0.67 0.63 92 1011.9
20260507025033 43 109 0.0 0.0 0.00 0.67 0.63 92 1012.0
20260507024533 43 109 0.0 0.0 0.00 0.67 0.63 92 1011.8
20260507024030 43 109 0.0 0.0 0.00 0.67 0.63 92 1011.8
20260507023026 43 109 0.0 0.0 0.00 0.67 0.63 92 1011.8
20260507022527 43 109 0.0 0.0 0.00 0.67 0.63 92 1011.9
20260507022027 43 109 0.0 0.0 0.00 0.67 0.63 92 1011.8
20260507021526 43 109 0.0 0.0 0.00 0.67 0.63 92 1011.8
20260507021022 43 109 0.0 0.0 0.00 0.67 0.63 92 1011.9
20260507020522 43 109 0.0 0.0 0.00 0.67 0.63 92 1011.8
20260507020019 43 109 0.0 0.0 0.00 0.67 0.63 92 1011.9
20260507015719 43 109 0.0 0.0 0.00 0.67 0.63 92 1011.9
20260507015015 43 109 0.0 0.0 0.00 0.67 0.63 92 1011.8
20260507014513 43 109 0.0 0.0 0.00 0.67 0.63 92 1011.8
20260507014011 43 109 0.0 0.0 0.00 0.68 0.63 92 1011.7
20260507013510 43 109 0.0 0.0 0.00 0.68 0.63 92 1011.6
20260507012509 43 109 0.0 0.0 0.00 0.68 0.63 92 1011.7
20260507012007 43 109 0.0 0.0 0.00 0.69 0.63 92 1011.8
20260507011506 43 109 0.0 0.0 0.00 0.69 0.63 92 1011.8
20260507011004 43 109 0.0 0.0 0.00 0.69 0.63 92 1011.7
20260507010507 43 106 0.0 0.0 0.00 0.69 0.63 92 1011.7
20260507010005 43 106 0.0 0.0 0.00 0.69 0.63 92 1011.5
20260507004955 43 82 0.0 0.0 0.00 0.70 0.63 92 1011.5
20260507004449 43 82 0.0 0.0 0.00 0.70 0.63 92 1011.5
20260507003943 43 81 0.0 0.0 0.01 0.71 0.63 92 1011.5
20260507003437 43 81 0.0 0.0 0.02 0.71 0.63 92 1011.5
20260507002932 43 81 0.0 0.0 0.02 0.71 0.63 92 1011.5
20260507002432 42 81 0.0 0.0 0.02 0.72 0.63 92 1011.3
20260507001932 43 81 0.0 0.0 0.03 0.72 0.63 92 1011.2
20260507001431 43 81 0.0 0.0 0.03 0.72 0.63 92 1011.2
20260507000931 43 81 0.0 0.0 0.03 0.73 0.63 91 1011.1
20260507000431 43 81 0.0 0.0 0.03 0.73 0.63 91 1010.9
20260506235932 43 81 0.0 0.0 0.04 0.74 0.63 91 1011.0
20260506235432 43 81 0.0 0.0 0.04 0.74 0.63 91 1010.9
20260506234932 43 81 0.0 0.0 0.05 0.74 0.63 91 1010.8
20260506234432 44 81 0.0 0.0 0.06 0.74 0.63 90 1010.9
20260506233934 44 83 0.0 0.0 0.05 0.73 0.62 91 1010.9
20260506233432 45 84 0.0 0.0 0.04 0.73 0.61 91 1010.8
20260506232931 45 84 0.0 0.0 0.05 0.73 0.61 90 1010.8
20260506232432 45 85 0.0 0.0 0.05 0.73 0.61 90 1010.7
20260506231931 45 85 0.0 0.0 0.05 0.73 0.60 90 1010.4
20260506231431 46 85 0.0 0.0 0.05 0.73 0.60 90 1010.3
20260506230933 46 85 0.0 0.0 0.05 0.73 0.60 90 1010.3
20260506230431 46 85 0.0 0.0 0.05 0.74 0.59 89 1010.0
20260506225925 47 86 0.0 0.0 0.04 0.73 0.59 89 1009.9
20260506225425 47 86 0.0 0.0 0.03 0.72 0.58 89 1009.8
20260506224923 47 86 0.0 0.0 0.03 0.72 0.58 88 1009.8
20260506224423 47 86 0.0 0.0 0.02 0.72 0.57 88 1009.7
20260506223924 48 86 0.0 0.0 0.02 0.72 0.57 87 1009.5
20260506223421 48 85 0.0 0.0 0.02 0.72 0.56 86 1009.5
20260506222921 48 86 0.0 0.0 0.01 0.71 0.56 86 1009.5
20260506222422 48 86 0.0 0.0 0.01 0.71 0.55 85 1009.4
20260506221920 48 86 0.0 0.0 0.00 0.70 0.55 84 1009.4
20260506221418 48 86 0.0 0.0 0.00 0.71 0.55 84 1009.3
20260506220916 48 86 0.0 0.0 0.00 0.71 0.55 85 1009.3
20260506220414 48 86 0.0 0.0 0.00 0.71 0.55 84 1009.3
20260506215912 48 86 0.0 0.0 0.00 0.71 0.55 84 1009.2
20260506215410 48 86 0.0 0.0 0.00 0.72 0.55 84 1009.2
20260506214908 48 85 0.0 0.0 0.00 0.72 0.55 83 1009.0
20260506214405 48 86 0.0 0.0 0.00 0.72 0.55 83 1009.1
20260506213904 48 85 0.0 0.0 0.00 0.72 0.55 83 1009.0
20260506213402 48 86 0.0 0.0 0.00 0.73 0.55 83 1009.1
20260506212903 48 88 0.0 0.0 0.00 0.73 0.55 83 1009.1
20260506212403 49 86 0.0 0.0 0.00 0.73 0.55 82 1009.0
20260506211903 49 86 0.0 0.0 0.00 0.73 0.55 82 1009.0
20260506211400 49 86 0.0 0.0 0.00 0.73 0.55 80 1009.1
20260506210857 50 86 0.0 0.0 0.00 0.73 0.55 80 1009.1
20260506204054 51 0 0.0 0.0 0.00 0.73 0.55 77 1009.2
20260506184532 47 0 0.0 0.0 0.00 0.73 0.55 88 1009.4
20260506182333 46 86 0.0 0.0 0.00 0.73 0.55 89 1009.4
20260506181833 46 86 0.0 0.0 0.00 0.73 0.55 90 1009.4
20260506181333 46 86 0.0 0.0 0.00 0.73 0.55 91 1009.6
20260506180828 45 86 0.0 0.0 0.00 0.73 0.55 90 1009.6
20260506180328 45 86 0.0 0.0 0.00 0.73 0.55 90 1009.8
20260506175829 45 86 0.0 0.0 0.00 0.73 0.55 90 1009.7
20260506175328 45 86 0.0 0.0 0.00 0.73 0.55 90 1009.7
20260506174832 45 86 0.0 0.0 0.00 0.73 0.55 90 1009.7
20260506174325 46 86 0.0 0.0 0.00 0.73 0.55 91 1009.6
20260506173823 45 86 0.0 0.0 0.00 0.73 0.55 91 1009.6
20260506173323 45 86 0.0 0.0 0.00 0.73 0.55 91 1009.4
20260506172822 45 86 0.0 0.0 0.00 0.73 0.55 91 1009.3
20260506172321 45 86 0.0 0.0 0.00 0.73 0.55 92 1009.4
20260506171821 45 86 0.0 0.0 0.00 0.73 0.55 92 1009.3
20260506171321 45 86 0.0 0.0 0.00 0.73 0.55 92 1009.2
20260506170819 45 86 0.0 0.0 0.00 0.73 0.55 92 1009.0
20260506170318 45 86 0.0 0.0 0.00 0.73 0.55 92 1009.0
20260506165819 45 86 0.0 0.0 0.00 0.73 0.55 92 1009.1
20260506165319 45 86 0.0 0.0 0.00 0.73 0.55 92 1009.0
20260506164817 45 86 0.0 0.0 0.00 0.73 0.55 92 1009.1
20260506164315 45 86 0.0 0.0 0.00 0.73 0.55 92 1009.0
20260506163815 45 86 0.0 0.0 0.00 0.73 0.55 92 1009.0
20260506163315 44 86 0.0 0.0 0.00 0.73 0.55 92 1009.0
20260506162813 44 86 0.0 0.0 0.00 0.73 0.55 92 1009.1
20260506162311 44 86 0.0 0.0 0.00 0.73 0.55 92 1009.0
20260506161811 44 86 0.0 0.0 0.00 0.73 0.55 92 1009.1
20260506161311 44 86 0.0 0.0 0.00 0.73 0.55 92 1009.1
20260506160809 44 86 0.0 0.0 0.00 0.73 0.55 92 1009.0
20260506160307 44 86 0.0 0.0 0.00 0.73 0.55 93 1009.1
20260506155806 44 86 0.0 0.0 0.00 0.73 0.55 93 1009.0
20260506155307 44 86 0.0 0.0 0.00 0.73 0.55 93 1008.9
20260506154807 44 86 0.0 0.0 0.00 0.73 0.55 92 1009.0
20260506154307 44 86 0.0 0.0 0.00 0.73 0.55 92 1009.2
20260506153803 44 86 0.0 0.0 0.00 0.73 0.55 92 1009.1
20260506153302 44 86 0.0 0.0 0.00 0.73 0.55 92 1009.0
20260506152803 43 86 0.0 0.0 0.00 0.73 0.55 92 1009.0
20260506152305 43 86 0.0 0.0 0.00 0.73 0.55 92 1008.9
20260506151804 43 86 0.0 1.0 0.00 0.73 0.55 92 1008.8
20260506151302 43 86 0.0 1.0 0.00 0.73 0.55 92 1008.8
20260506150803 43 86 0.0 0.0 0.00 0.73 0.55 92 1008.9
20260506150305 43 87 0.0 0.0 0.00 0.73 0.55 92 1008.9
20260506145802 43 87 0.0 0.0 0.00 0.73 0.55 92 1008.9
20260506145305 43 87 0.0 0.0 0.00 0.73 0.55 92 1008.9
20260506144802 43 87 0.0 0.0 0.00 0.73 0.55 92 1008.8
20260506144303 43 87 0.0 0.0 0.00 0.73 0.55 92 1008.8
20260506143803 43 87 0.0 0.0 0.00 0.73 0.55 92 1008.8
20260506143303 43 87 0.0 0.0 0.00 0.73 0.55 92 1008.7
20260506142802 43 87 0.0 0.0 0.01 0.73 0.55 92 1008.6
20260506142305 43 87 0.0 0.0 0.01 0.73 0.55 92 1008.6
20260506141803 43 87 0.0 0.0 0.01 0.73 0.55 92 1008.6
20260506141302 43 87 0.0 0.0 0.01 0.73 0.55 92 1008.6
20260506140804 43 88 0.0 0.0 0.02 0.73 0.55 92 1008.4
20260506140303 43 88 0.0 0.0 0.02 0.73 0.55 92 1008.4
20260506135803 43 88 0.0 0.0 0.02 0.73 0.55 92 1008.4
20260506135305 44 88 0.0 0.0 0.02 0.73 0.55 92 1008.4
20260506134803 44 88 0.0 0.0 0.02 0.73 0.55 92 1008.4
20260506134302 44 88 0.0 0.0 0.03 0.73 0.55 92 1008.6
20260506133803 43 88 0.0 0.0 0.03 0.73 0.55 92 1008.6
20260506133302 43 88 0.0 0.0 0.03 0.73 0.55 92 1008.4
20260506132803 43 88 0.0 0.0 0.02 0.72 0.54 92 1008.4
20260506132302 44 88 0.0 0.0 0.02 0.72 0.54 92 1008.4
20260506131805 43 88 0.0 0.0 0.03 0.72 0.54 92 1008.4
20260506131302 43 88 0.0 0.0 0.03 0.72 0.54 92 1008.4
20260506130803 43 88 0.0 0.0 0.02 0.71 0.53 92 1008.2
20260506130302 43 88 0.0 0.0 0.02 0.71 0.53 92 1008.2
20260506125803 43 88 0.0 0.0 0.03 0.71 0.53 92 1008.2
20260506125305 43 88 0.0 0.0 0.03 0.71 0.53 92 1008.2
20260506124803 43 88 0.0 0.0 0.03 0.71 0.53 92 1008.2
20260506124302 43 88 0.0 3.0 0.02 0.70 0.52 92 1008.2
20260506123802 43 88 0.0 3.0 0.02 0.70 0.52 92 1008.2
20260506123258 43 90 0.0 2.0 0.03 0.70 0.52 92 1008.1
20260506122752 43 91 0.0 2.0 0.03 0.70 0.52 92 1008.0
20260506122246 43 70 0.0 0.0 0.03 0.70 0.52 92 1008.0
20260506121740 43 71 0.0 0.0 0.02 0.69 0.51 92 1008.0
20260506121240 43 71 0.0 0.0 0.02 0.69 0.51 92 1008.2
20260506120740 43 71 0.0 0.0 0.02 0.69 0.51 92 1008.2
20260506120239 43 71 0.0 0.0 0.03 0.69 0.51 92 1008.3
20260506115738 43 71 0.0 0.0 0.02 0.68 0.50 92 1008.3
20260506115236 43 71 0.0 0.0 0.02 0.68 0.50 92 1008.3
20260506114736 43 70 0.0 0.0 0.03 0.68 0.50 92 1008.3
20260506114236 43 70 0.0 0.0 0.03 0.68 0.50 92 1008.3
20260506113736 43 71 0.0 0.0 0.04 0.68 0.50 92 1008.5
20260506113237 43 71 0.0 0.0 0.04 0.67 0.49 92 1008.2
20260506112737 43 71 0.0 0.0 0.04 0.67 0.49 92 1008.3
20260506112232 43 70 0.0 0.0 0.05 0.67 0.49 92 1008.1
20260506111732 43 71 0.0 0.0 0.06 0.67 0.49 92 1008.3
20260506111232 43 71 0.0 0.0 0.06 0.67 0.49 92 1008.0
20260506110732 43 71 0.0 0.0 0.07 0.67 0.49 92 1007.8
20260506110232 43 71 0.0 0.0 0.06 0.66 0.48 92 1007.9
20260506105732 43 71 0.0 0.0 0.07 0.66 0.48 92 1008.0
20260506105232 43 71 0.0 0.0 0.07 0.66 0.48 92 1007.7
20260506104732 43 71 0.0 0.0 0.06 0.65 0.47 92 1007.6
20260506104231 43 71 0.0 0.0 0.07 0.65 0.46 92 1007.8
20260506103730 43 70 0.0 0.0 0.07 0.64 0.46 92 1008.0
20260506103230 43 70 0.0 0.0 0.06 0.63 0.45 92 1008.1
20260506102729 43 70 0.0 0.0 0.07 0.63 0.45 92 1008.2
20260506102230 43 81 0.0 0.0 0.06 0.62 0.44 92 1008.1
20260506101730 43 81 0.0 0.0 0.05 0.61 0.43 92 1008.1
20260506101230 43 81 0.0 0.0 0.05 0.61 0.43 92 1008.2
20260506100730 43 81 0.0 0.0 0.04 0.60 0.42 92 1008.3
20260506100231 44 81 0.0 0.0 0.03 0.59 0.41 92 1008.3
20260506095730 44 81 0.0 0.0 0.04 0.59 0.41 92 1008.2
20260506095230 44 81 0.0 0.0 0.04 0.59 0.41 92 1008.3
20260506094730 44 81 0.0 0.0 0.04 0.59 0.40 92 1008.3
20260506094230 44 81 0.0 0.0 0.03 0.58 0.40 92 1008.4
20260506093730 44 81 0.0 0.0 0.03 0.57 0.39 92 1008.5
20260506093231 44 81 0.0 0.0 0.03 0.57 0.39 92 1008.4
20260506092731 44 81 0.0 0.0 0.02 0.56 0.38 92 1008.1
20260506092231 44 81 0.0 0.0 0.02 0.56 0.38 92 1008.1
20260506091731 44 81 0.0 0.0 0.03 0.56 0.38 92 1008.2
20260506091230 44 81 0.0 0.0 0.03 0.56 0.38 92 1008.1
20260506090729 44 82 0.0 0.0 0.03 0.56 0.38 92 1008.0
20260506090232 44 82 0.0 0.0 0.03 0.56 0.38 92 1007.9
20260506085730 44 82 0.0 0.0 0.03 0.55 0.37 92 1008.0
20260506085230 45 82 0.0 0.0 0.03 0.55 0.37 92 1008.1
20260506084730 45 82 0.0 0.0 0.04 0.55 0.37 92 1008.0
20260506084231 44 82 0.0 0.0 0.04 0.55 0.37 92 1008.0
20260506083730 44 81 0.0 1.0 0.03 0.54 0.36 92 1008.0
20260506083231 44 82 0.0 1.0 0.04 0.54 0.36 92 1008.2
20260506082730 45 82 0.0 0.0 0.05 0.54 0.36 92 1008.3
20260506082231 45 82 0.0 0.0 0.05 0.54 0.36 92 1008.4
20260506081730 45 82 0.0 0.0 0.04 0.53 0.35 92 1008.4
20260506081230 45 82 0.0 0.0 0.05 0.53 0.35 92 1008.3
20260506080730 45 83 0.0 0.0 0.06 0.53 0.35 92 1008.3
20260506080231 45 83 0.0 1.0 0.06 0.53 0.35 92 1008.1